• In Moldova, Republic
  • List of Countries
  • For 7 days
  • Water Temperature
  • Satellite Maps
  • Weather Map
  • Weather Widgets
  • user-avatar
    Login

    Hourly Weather Sidi Bu-l-Abbas

    Today, 29 May, Monday

    Time Temperature Precipitation Wind Pressure Humidity
    00:00 +19°C° 0 mm 3 mps 720 mmHg 88%
    01:00 +19°C° 0.1 mm 3 mps 720 mmHg 87%
    02:00 +19°C° 0.1 mm 3 mps 720 mmHg 87%
    03:00 +18°C° 0.1 mm 3 mps 720 mmHg 87%
    04:00 +18°C° 0.3 mm 3 mps 720 mmHg 87%
    05:00 +18°C° 0.3 mm 3 mps 720 mmHg 86%
    06:00 +18°C° 0.3 mm 2 mps 720 mmHg 86%
    07:00 +20°C° 0.1 mm 2 mps 720 mmHg 79%
    08:00 +21°C° 0.1 mm 2 mps 720 mmHg 72%
    09:00 +23°C° 0.1 mm 2 mps 720 mmHg 65%
    10:00 +24°C° 0 mm 3 mps 720 mmHg 59%
    11:00 +25°C° 0 mm 3 mps 720 mmHg 53%
    12:00 +27°C° 0 mm 4 mps 720 mmHg 47%
    13:00 +27°C° 0 mm 4 mps 720 mmHg 46%
    14:00 +27°C° 0 mm 4 mps 720 mmHg 46%
    15:00 +27°C° 0 mm 5 mps 719 mmHg 45%
    16:00 +26°C° 0.1 mm 4 mps 719 mmHg 49%
    17:00 +25°C° 0.1 mm 4 mps 719 mmHg 52%
    18:00 +23°C° 0.1 mm 4 mps 719 mmHg 56%
    19:00 +21°C° 0.2 mm 3 mps 719 mmHg 64%
    20:00 +20°C° 0.2 mm 2 mps 719 mmHg 71%
    21:00 +19°C° 0.2 mm 1 mps 720 mmHg 78%
    22:00 +19°C° 0.2 mm 1 mps 720 mmHg 79%
    23:00 +19°C° 0.2 mm 1 mps 720 mmHg 81%

    Tomorrow, 30 May, Tuesday

    Time Temperature Precipitation Wind Pressure Humidity
    00:00 +19°C° 0.2 mm 1 mps 720 mmHg 82%
    01:00 +19°C° 0.1 mm 1 mps 720 mmHg 82%
    02:00 +18°C° 0.1 mm 1 mps 719 mmHg 82%
    03:00 +18°C° 0.1 mm 1 mps 719 mmHg 82%
    04:00 +19°C° 0.1 mm 1 mps 719 mmHg 78%
    05:00 +20°C° 0.1 mm 1 mps 719 mmHg 74%
    06:00 +20°C° 0.1 mm 1 mps 719 mmHg 70%
    07:00 +22°C° 0 mm 1 mps 720 mmHg 62%
    08:00 +24°C° 0 mm 2 mps 720 mmHg 55%
    09:00 +25°C° 0 mm 2 mps 720 mmHg 47%
    10:00 +26°C° 0 mm 2 mps 720 mmHg 44%
    11:00 +27°C° 0 mm 3 mps 720 mmHg 42%
    12:00 +28°C° 0 mm 3 mps 720 mmHg 39%
    13:00 +29°C° 0.1 mm 3 mps 719 mmHg 39%
    14:00 +29°C° 0.1 mm 3 mps 719 mmHg 38%
    15:00 +29°C° 0.1 mm 3 mps 719 mmHg 38%
    16:00 +28°C° 0.2 mm 3 mps 719 mmHg 42%
    17:00 +26°C° 0.2 mm 3 mps 719 mmHg 45%
    18:00 +25°C° 0.2 mm 3 mps 718 mmHg 49%
    19:00 +24°C° 0.9 mm 2 mps 719 mmHg 58%
    20:00 +22°C° 0.9 mm 1 mps 719 mmHg 66%
    21:00 +20°C° 0.9 mm 1 mps 720 mmHg 75%
    22:00 +20°C° 0.6 mm 1 mps 720 mmHg 76%
    23:00 +20°C° 0.6 mm 1 mps 720 mmHg 78%

    Day after tomorrow, 31 May, Wednesday

    Time Temperature Precipitation Wind Pressure Humidity
    00:00 +20°C° 0.6 mm 1 mps 720 mmHg 80%
    01:00 +19°C° 0 mm 1 mps 720 mmHg 81%
    02:00 +19°C° 0 mm 1 mps 720 mmHg 81%
    03:00 +19°C° 0 mm 1 mps 720 mmHg 82%
    04:00 +20°C° 0 mm 1 mps 720 mmHg 79%
    05:00 +20°C° 0 mm 1 mps 720 mmHg 76%
    06:00 +21°C° 0 mm 1 mps 720 mmHg 73%
    07:00 +23°C° 0 mm 1 mps 721 mmHg 64%
    08:00 +25°C° 0 mm 1 mps 721 mmHg 55%
    09:00 +27°C° 0 mm 1 mps 721 mmHg 47%
    10:00 +28°C° 0 mm 2 mps 721 mmHg 46%
    11:00 +28°C° 0 mm 2 mps 721 mmHg 45%
    12:00 +28°C° 0 mm 3 mps 721 mmHg 44%
    13:00 +29°C° 0 mm 3 mps 721 mmHg 42%
    14:00 +29°C° 0 mm 3 mps 720 mmHg 41%
    15:00 +29°C° 0 mm 4 mps 720 mmHg 40%
    16:00 +29°C° 0 mm 4 mps 720 mmHg 42%
    17:00 +28°C° 0 mm 4 mps 720 mmHg 43%
    18:00 +28°C° 0 mm 4 mps 719 mmHg 45%
    19:00 +26°C° 0.2 mm 3 mps 720 mmHg 52%
    20:00 +24°C° 0.2 mm 2 mps 720 mmHg 59%
    21:00 +23°C° 0.2 mm 2 mps 720 mmHg 67%
    22:00 +21°C° 0.2 mm 2 mps 720 mmHg 68%
    23:00 +21°C° 0.2 mm 2 mps 720 mmHg 69%

    1 June, Thursday

    Time Temperature Precipitation Wind Pressure Humidity
    00:00 +22°C° 0.2 mm 1 mps 720 mmHg 70%
    01:00 +21°C° 0 mm 1 mps 720 mmHg 71%
    02:00 +21°C° 0 mm 1 mps 720 mmHg 73%
    03:00 +20°C° 0 mm 1 mps 720 mmHg 74%
    04:00 +21°C° 0 mm 1 mps 720 mmHg 72%
    05:00 +22°C° 0 mm 1 mps 720 mmHg 70%
    06:00 +22°C° 0 mm 1 mps 720 mmHg 68%
    07:00 +24°C° 0 mm 1 mps 721 mmHg 61%
    08:00 +26°C° 0 mm 1 mps 721 mmHg 53%
    09:00 +28°C° 0 mm 1 mps 722 mmHg 46%
    10:00 +29°C° 0 mm 1 mps 722 mmHg 43%
    11:00 +30°C° 0 mm 2 mps 721 mmHg 40%
    12:00 +31°C° 0 mm 3 mps 721 mmHg 37%
    13:00 +33°C° 0 mm 3 mps 721 mmHg 36%
    14:00 +33°C° 0 mm 4 mps 721 mmHg 35%
    15:00 +34°C° 0 mm 4 mps 720 mmHg 34%
    16:00 +32°C° 0.1 mm 4 mps 720 mmHg 38%
    17:00 +30°C° 0.1 mm 4 mps 720 mmHg 42%
    18:00 +29°C° 0.1 mm 4 mps 720 mmHg 46%
    19:00 +27°C° 0.7 mm 3 mps 720 mmHg 54%
    20:00 +25°C° 0.7 mm 2 mps 720 mmHg 62%
    21:00 +24°C° 0.7 mm 1 mps 720 mmHg 70%
    22:00 +23°C° 0.5 mm 1 mps 720 mmHg 71%
    23:00 +23°C° 0.5 mm 1 mps 720 mmHg 72%

    2 June, Friday

    Time Temperature Precipitation Wind Pressure Humidity
    00:00 +23°C° 0.5 mm 1 mps 720 mmHg 73%
    01:00 +23°C° 0.7 mm 1 mps 720 mmHg 72%
    02:00 +23°C° 0.7 mm 1 mps 720 mmHg 71%
    03:00 +23°C° 0.7 mm 2 mps 720 mmHg 70%
    04:00 +23°C° 0.1 mm 2 mps 720 mmHg 68%
    05:00 +23°C° 0.1 mm 2 mps 720 mmHg 65%
    06:00 +24°C° 0.1 mm 2 mps 720 mmHg 63%
    07:00 +26°C° 0 mm 2 mps 720 mmHg 54%
    08:00 +29°C° 0 mm 2 mps 721 mmHg 44%
    09:00 +31°C° 0 mm 2 mps 721 mmHg 35%
    10:00 +34°C° 0 mm 3 mps 721 mmHg 31%
    11:00 +35°C° 0 mm 3 mps 721 mmHg 28%
    12:00 +37°C° 0 mm 3 mps 721 mmHg 25%
    13:00 +37°C° 0 mm 3 mps 720 mmHg 25%
    14:00 +37°C° 0 mm 3 mps 720 mmHg 25%
    15:00 +37°C° 0 mm 3 mps 719 mmHg 25%
    16:00 +36°C° 0 mm 3 mps 719 mmHg 29%
    17:00 +35°C° 0 mm 3 mps 719 mmHg 33%
    18:00 +33°C° 0 mm 3 mps 719 mmHg 36%
    19:00 +30°C° 0.2 mm 2 mps 719 mmHg 43%
    20:00 +28°C° 0.2 mm 2 mps 719 mmHg 50%
    21:00 +26°C° 0.2 mm 2 mps 719 mmHg 57%
    22:00 +26°C° 0.1 mm 2 mps 719 mmHg 61%
    23:00 +25°C° 0.1 mm 1 mps 719 mmHg 65%

    3 June, Saturday

    Time Temperature Precipitation Wind Pressure Humidity
    00:00 +24°C° 0.1 mm 1 mps 719 mmHg 69%
    01:00 +25°C° 0 mm 1 mps 719 mmHg 68%
    02:00 +25°C° 0 mm 1 mps 718 mmHg 67%
    03:00 +25°C° 0 mm 1 mps 718 mmHg 67%
    04:00 +25°C° 0 mm 1 mps 718 mmHg 65%
    05:00 +25°C° 0 mm 1 mps 719 mmHg 62%
    06:00 +26°C° 0 mm 1 mps 719 mmHg 60%
    07:00 +27°C° 0 mm 1 mps 719 mmHg 54%
    08:00 +29°C° 0 mm 1 mps 719 mmHg 49%
    09:00 +30°C° 0 mm 2 mps 719 mmHg 43%
    10:00 +31°C° 0 mm 3 mps 719 mmHg 41%
    11:00 +33°C° 0 mm 3 mps 719 mmHg 39%
    12:00 +34°C° 0 mm 4 mps 719 mmHg 37%
    13:00 +33°C° 0.1 mm 4 mps 718 mmHg 39%
    14:00 +33°C° 0.1 mm 4 mps 718 mmHg 42%
    15:00 +31°C° 0.1 mm 3 mps 718 mmHg 44%
    16:00 +30°C° 0.2 mm 3 mps 718 mmHg 49%
    17:00 +28°C° 0.2 mm 2 mps 718 mmHg 54%
    18:00 +27°C° 0.2 mm 2 mps 717 mmHg 59%
    19:00 +26°C° 1.2 mm 2 mps 718 mmHg 66%
    20:00 +24°C° 1.2 mm 2 mps 718 mmHg 73%
    21:00 +23°C° 1.2 mm 2 mps 719 mmHg 79%
    22:00 +23°C° 0.9 mm 2 mps 719 mmHg 82%
    23:00 +21°C° 0.9 mm 2 mps 718 mmHg 85%
    Show more